Clinton-Sherman, OK

8:45 AM CST on January 22, 2018 (GMT -0600)
Clinton-Sherman

Weather History for KCSM - March, 2014

Change the Weather History Date:

Tuesday, March 4, 2014

  Actual Average Record
Temperature  
Mean Temperature 34 °F -  
Max Temperature 52 °F 54 °F 80 °F (2009)
Min Temperature 17 °F 31 °F 17 °F (2002)
Degree Days  
Heating Degree Days 30    
Moisture  
Dew Point 22 °F    
Average Humidity 65    
Maximum Humidity 88    
Minimum Humidity 40    
Precipitation  
Precipitation 0.00 in - - ()
Sea Level Pressure  
Sea Level Pressure 30.07 in    
Wind  
Wind Speed 14 mph (South)    
Max Wind Speed 20 mph    
Max Gust Speed -    
Visibility 10 miles    
Events      
Averages and records for this station are not official NWS values.
T = Trace of Precipitation, MM = Missing Value Source: NWS Daily Summary

Daily Weather History Graph

Daily Weather History Graph

Search for Another Location

Airport or City:

Trip Planner

Search our weather history database for the weather conditions in past years. The results will help you decide how hot, cold, wet, or windy it might be!

Date:

Astronomy

Mar. 04, 2014 Rise Set
Actual Time 7:02 AM CST 6:34 PM CST
Civil Twilight 6:37 AM CST 7:00 PM CST
Nautical Twilight 6:07 AM CST 7:29 PM CST
Astronomical Twilight 5:38 AM CST 7:59 PM CST
Moon 8:58 AM CST (3/4) 10:33 PM CST (3/4)
Length of Visible Light 12h 23m
Length of Day
11h 32m
Waxing Crescent, 15% of the Moon is Illuminated
Mar 4
Waxing Crescent
Mar 8
First Quarter
Mar 16
Full
Mar 23
Last Quarter
Mar 30
New

Hourly Weather History & Observations

Time (CST) Temp. Windchill Dew Point Humidity Pressure Visibility Wind Dir Wind Speed Gust Speed Precip Events Conditions
12:53 AM 19.0 °F - 14.0 °F 81% 30.27 in 10.0 mi North - - N/A   Clear
1:53 AM 19.0 °F 6.8 °F 15.1 °F 85% 30.24 in 10.0 mi South 11.5 mph - N/A   Clear
2:53 AM 19.0 °F 5.6 °F 15.1 °F 85% 30.21 in 10.0 mi South 13.8 mph - N/A   Clear
3:53 AM 19.9 °F 5.2 °F 14.0 °F 78% 30.19 in 10.0 mi SSW 17.3 mph - N/A   Clear
4:53 AM 18.0 °F 5.4 °F 14.0 °F 84% 30.17 in 10.0 mi SSW 11.5 mph - N/A   Clear
5:53 AM 17.1 °F 6.6 °F 14.0 °F 88% 30.16 in 10.0 mi SSW 8.1 mph - N/A   Clear
6:53 AM 17.1 °F 5.8 °F 14.0 °F 88% 30.16 in 10.0 mi South 9.2 mph - N/A   Clear
7:53 AM 19.9 °F 5.2 °F 15.1 °F 81% 30.16 in 10.0 mi South 17.3 mph - N/A   Clear
8:53 AM 23.0 °F 9.6 °F 16.0 °F 74% 30.15 in 10.0 mi South 16.1 mph - N/A   Clear
9:53 AM 28.9 °F 16.1 °F 19.0 °F 67% 30.14 in 10.0 mi SSW 19.6 mph - N/A   Clear
10:53 AM 33.1 °F 22.2 °F 21.0 °F 61% 30.11 in 10.0 mi South 17.3 mph - N/A   Clear
11:53 AM 37.9 °F 29.2 °F 23.0 °F 55% 30.09 in 10.0 mi South 15.0 mph - N/A   Clear
12:53 PM 43.0 °F 36.0 °F 25.0 °F 49% 30.06 in 10.0 mi South 13.8 mph - N/A   Clear
1:53 PM 46.9 °F - 27.0 °F 46% 30.01 in 10.0 mi South 18.4 mph - N/A   Clear
2:53 PM 50.0 °F - 28.0 °F 43% 29.97 in 10.0 mi South 15.0 mph - N/A   Clear
3:53 PM 52.0 °F - 28.0 °F 40% 29.95 in 10.0 mi South 17.3 mph - N/A   Clear
4:53 PM 50.0 °F - 28.0 °F 43% 29.96 in 10.0 mi South 17.3 mph - N/A   Clear
5:53 PM 46.0 °F 39.3 °F 28.9 °F 51% 29.96 in 10.0 mi SSE 16.1 mph - N/A   Clear
6:53 PM 43.0 °F 36.4 °F 28.9 °F 58% 29.98 in 10.0 mi SSE 12.7 mph - N/A   Clear
7:53 PM 41.0 °F 33.5 °F 28.0 °F 60% 29.97 in 10.0 mi SSE 13.8 mph - N/A   Clear
8:53 PM 39.9 °F 32.5 °F 27.0 °F 60% 29.97 in 10.0 mi SSE 12.7 mph - N/A   Clear
9:53 PM 39.0 °F 31.4 °F 27.0 °F 62% 29.97 in 10.0 mi SSE 12.7 mph - N/A   Clear
10:53 PM 37.0 °F 28.9 °F 27.0 °F 67% 29.97 in 10.0 mi SSE 12.7 mph - N/A   Clear
11:53 PM 37.9 °F 29.2 °F 27.0 °F 65% 29.96 in 10.0 mi SSE 15.0 mph - N/A   Clear